Regional Weather Roundup
Issued by NWS State College, PA

Home | Current Version | Previous Version | Graphics & Text | Print | Product List | Glossary On
Versions: 1 2 3 4 5 6 7 8 9 10 11 12 13 14 15 16 17 18 19 20 21 22 23 24 25 26 27 28 29 30 31 32 33 34 35 36 37 38 39 40 41 42 43 44 45 46 47 48 49 50
042
ASUS41 KCTP 060203
RWRCTP

REGIONAL WEATHER ROUNDUP
NATIONAL WEATHER SERVICE STATE COLLEGE PA
900 PM EST FRI FEB 05 2016

Note: "fair" indicates few or no clouds below 12,000 feet with no
significant weather and/or obstructions to visibility.

* = STATION THAT DOES NOT REPORT PRECIPITATION /E.G. RAIN...SNOW...ETC/
    THUNDER OR FOG.

PAZ002>004-007>009-013>016-020>023-029>032-060300-
WESTERN PENNSYLVANIA

CITY           SKY/WX    TMP DP  RH WIND       PRES   REMARKS
ERIE           CLEAR     27  17  66 S8        30.34F
MEADVILLE      CLEAR     27  16  63 CALM      30.31F
FRANKLIN*      CLEAR     23  12  63 S5        30.33F
NEW CASTLE     FAIR      26  18  71 CALM      30.34F
BEAVER COUNTY  CLEAR     28  18  64 S3        30.34F
BUTLER*        CLEAR     25  16  68 CALM      30.37F
PITTSBURGH INT PTCLDY    29  16  58 CALM      30.34F
PITTSBURGH     CLEAR     32  16  51 SW3       30.34F
INDIANA*       PTCLDY    25  21  86 CALM      30.36F
LATROBE        CLEAR     25  18  74 CALM      30.36F
WASHINGTON CO* CLOUDY    25  18  74 CALM      30.35S
$$

PAZ004>006-010>012-017>019-024>028-033>037-041-042-045-046-049>053-060300-
CENTRAL PENNSYLVANIA

CITY           SKY/WX    TMP DP  RH WIND       PRES   REMARKS
BRADFORD       CLEAR     17  12  80 CALM      30.27F
DUBOIS         CLEAR     24  14  65 W3        30.29F
CLEARFIELD     CLEAR     27  14  58 MISG      30.32F
JOHNSTOWN      CLEAR     24  12  60 NW5       30.27F
ALTOONA        CLEAR     25  15  66 CALM      30.32F
STATE COLLEGE  CLEAR     28  16  59 W7        30.33S
WILLIAMSPORT   CLEAR     30  18  60 W5        30.34S
SELINSGROVE    CLEAR     31  17  56 NW6       30.36R
FT INDIANTOWN  CLEAR     34  16  48 W8G17     30.34R
CAPITAL CITY   CLEAR     34  15  46 W9        30.36R
HARRISBURG     CLEAR     33  19  56 NW13      30.35S
YORK           CLEAR     29  17  61 W3        30.36R
$$

PAZ038>040-043-044-047-048-054-055-060>062-067>071-060300-
EASTERN PENNSYLVANIA

CITY           SKY/WX    TMP DP  RH WIND       PRES   REMARKS
SCRANTON       CLEAR     26  15  63 CALM      30.30S
MOUNT POCONO   CLEAR     24  13  62 NW5       30.23S
ALLENTOWN      CLEAR     32  16  51 NW7       30.33R
QUAKERTOWN*    CLEAR     28  18  64 CALM      30.33R
READING        CLEAR     33  19  56 NW9       30.33R
LANCASTER      CLEAR     29  20  69 W8        30.34R
COATESVILLE    CLEAR     32  23  69 W7        30.34R
POTTSTOWN      CLEAR     31  17  56 NE3       30.35R
BLUE BELL        N/A     28  21  74 CALM      30.34R
DOYLESTOWN     CLEAR     30  15  53 N5        30.32R
WILLOW GROVE   NOT AVBL
NORTH PHILA    CLEAR     34  18  52 NW7       30.35R
PHILADELPHIA   CLEAR     37  16  42 NW5       30.35R
$$




USA.gov is the U.S. government's official web portal to all federal, state and local government web resources and services.